Le nostre stazioni meteo in Italia

Pubblicità
Il mio iltempo24.it
Aviano, Italia (16036): Temperatura & dewpoint: 17.01.2019 05:00:00 - 23.01.2019 05:00:00 (CET)Aviano, Italia (16036): velocità del vento: 17.01.2019 05:00:00 - 23.01.2019 05:00:00 (CET)Aviano, Italia (16036): direzione del vento: 17.01.2019 05:00:00 - 23.01.2019 05:00:00 (CET)Aviano, Italia (16036): reduced air pressure: 17.01.2019 05:00:00 - 23.01.2019 05:00:00 (CET)Aviano, Italia (16036): visibility: 17.01.2019 05:00:00 - 23.01.2019 05:00:00 (CET)
Data & Tempo tt [°C] td [°C] ff [km/h] ff [kn] dd ppp [hPa] vv [km]
23.01.2019 05:00:00 - - - - - - -
23.01.2019 04:00:00 - - - - - - -
23.01.2019 03:00:00 - - - - - - -
23.01.2019 02:00:00 - - - - - - -
23.01.2019 01:00:00 - - - - - - -
23.01.2019 00:00:00 - - - - - - -
22.01.2019 23:00:00 - - - - - - -
22.01.2019 22:00:00 3,0 -2,9 4 2 SSO 1003,4 20
22.01.2019 21:00:00 3,0 -3,0 4 2 S - 10
22.01.2019 20:00:00 4,0 -3,0 4 2 E - 10
22.01.2019 19:00:00 3,8 -3,0 9 5 ENE 1004,6 20
22.01.2019 18:00:00 4,0 -3,0 5 3 NNE - 10
22.01.2019 17:00:00 5,0 -3,0 4 2 ESE - 10
22.01.2019 16:00:00 7,0 -3,3 11 6 E 1004,9 20
22.01.2019 15:00:00 8,0 -3,0 9 5 ENE - 10
22.01.2019 14:00:00 8,0 -4,0 9 5 ENE - 10
22.01.2019 13:00:00 7,0 -4,1 8 4 ENE 1007,8 25
22.01.2019 12:00:00 7,0 -3,0 11 6 E - 10
22.01.2019 11:00:00 5,0 -3,0 9 5 E - 10
22.01.2019 10:00:00 4,0 -2,0 11 6 NNE 1011,2 25
22.01.2019 09:00:00 -1,0 -4,0 8 4 NNE - 10
22.01.2019 08:00:00 -3,0 -5,0 8 4 NNE - 10
22.01.2019 07:00:00 -3,0 -3,7 8 4 N 1011,9 15
22.01.2019 06:00:00 -3,0 -3,0 5 3 N - 10
22.01.2019 05:00:00 -2,0 -3,0 9 5 NNE - 10
22.01.2019 04:00:00 - - - - - - -
22.01.2019 03:00:00 - - - - - - -
22.01.2019 02:00:00 - - - - - - -
22.01.2019 01:00:00 - - - - - - -
22.01.2019 00:00:00 - - - - - - -
21.01.2019 23:00:00 - - - - - - -
21.01.2019 22:00:00 -0,4 -1,7 5 3 NNE 1016,2 30
21.01.2019 21:00:00 0,0 -2,0 5 3 N - 10
21.01.2019 20:00:00 1,0 -2,0 8 4 NNE - 10
21.01.2019 19:00:00 2,4 -2,1 5 3 NNE 1016,4 30
21.01.2019 18:00:00 4,0 -3,0 8 4 E - 10
21.01.2019 17:00:00 5,0 -2,0 8 4 SE - 10
21.01.2019 16:00:00 5,8 -1,6 5 3 N 1015,8 25
21.01.2019 15:00:00 6,0 -1,0 4 2 ENE - 10
21.01.2019 14:00:00 6,0 -2,0 4 2 E - 10
21.01.2019 13:00:00 6,0 -2,6 4 2 NE 1017,3 25
21.01.2019 12:00:00 3,0 -3,0 5 3 E - 10
21.01.2019 11:00:00 3,0 -1,0 8 4 E - 10
21.01.2019 10:00:00 2,6 -1,4 5 3 E 1018,0 30
21.01.2019 09:00:00 2,0 0,0 5 3 NE - 10
21.01.2019 08:00:00 2,0 -2,0 5 3 NNE - 10
21.01.2019 07:00:00 0,6 -0,7 2 1 ENE 1017,0 20
21.01.2019 06:00:00 1,0 -1,0 4 2 ONO - 10
21.01.2019 05:00:00 0,0 -1,0 5 3 N - 10
21.01.2019 04:00:00 - - - - - - -
21.01.2019 03:00:00 - - - - - - -
21.01.2019 02:00:00 - - - - - - -
21.01.2019 01:00:00 - - - - - - -
21.01.2019 00:00:00 - - - - - - -
20.01.2019 23:00:00 - - - - - - -
20.01.2019 22:00:00 - - - - - - -
20.01.2019 21:00:00 - - - - - - -
20.01.2019 20:00:00 - - - - - - -
20.01.2019 19:00:00 - - - - - - -
20.01.2019 18:00:00 - - - - - - -
20.01.2019 17:00:00 - - - - - - -
20.01.2019 16:00:00 - - - - - - -
20.01.2019 15:00:00 - - - - - - -
20.01.2019 14:00:00 - - - - - - -
20.01.2019 13:00:00 - - - - - - -
20.01.2019 12:00:00 - - - - - - -
20.01.2019 11:00:00 - - - - - - -
20.01.2019 10:00:00 - - - - - - -
20.01.2019 09:00:00 - - - - - - -
20.01.2019 08:00:00 - - - - - - -
20.01.2019 07:00:00 - - - - - - -
20.01.2019 06:00:00 - - - - - - -
20.01.2019 05:00:00 - - - - - - -
20.01.2019 04:00:00 - - - - - - -
20.01.2019 03:00:00 - - - - - - -
20.01.2019 02:00:00 - - - - - - -
20.01.2019 01:00:00 - - - - - - -
20.01.2019 00:00:00 - - - - - - -
19.01.2019 23:00:00 - - - - - - -
19.01.2019 22:00:00 0,2 -2,5 8 4 N 1016,2 15
19.01.2019 21:00:00 2,0 -2,0 4 2 NNE - 10
19.01.2019 20:00:00 2,0 -2,0 5 3 NNO - 10
19.01.2019 19:00:00 2,4 -3,5 4 2 NE 1016,2 15
19.01.2019 18:00:00 5,0 0,0 8 4 NE - 10
19.01.2019 17:00:00 5,0 0,0 5 3 ENE - 10
19.01.2019 16:00:00 5,2 -1,7 11 6 E 1015,8 25
19.01.2019 15:00:00 5,0 -2,0 8 4 ESE - 10
19.01.2019 14:00:00 5,0 -2,0 5 3 SSE - 10
19.01.2019 13:00:00 5,0 -2,3 5 3 E 1017,0 30
19.01.2019 12:00:00 5,0 -2,0 8 4 E - 10
19.01.2019 11:00:00 5,0 -2,0 9 5 E - 10
19.01.2019 10:00:00 4,2 -2,0 9 5 NE 1017,6 25
19.01.2019 09:00:00 3,0 -1,0 11 6 ENE - 10
19.01.2019 08:00:00 - - - - - - -
19.01.2019 07:00:00 1,0 -2,9 5 3 NE 1017,1 15
19.01.2019 06:00:00 2,0 -2,0 8 4 N - 10
19.01.2019 05:00:00 3,0 -1,0 9 5 NNE - 10
19.01.2019 04:00:00 - - - - - - -
19.01.2019 03:00:00 - - - - - - -
19.01.2019 02:00:00 - - - - - - -
19.01.2019 01:00:00 - - - - - - -
19.01.2019 00:00:00 - - - - - - -
18.01.2019 23:00:00 - - - - - - -
18.01.2019 22:00:00 4,0 -0,2 11 6 NE 1017,7 20
18.01.2019 21:00:00 5,0 0,0 11 6 ENE - 10
18.01.2019 20:00:00 5,0 1,0 11 6 E - 10
18.01.2019 19:00:00 5,2 0,8 9 5 E 1016,6 20
18.01.2019 18:00:00 5,0 1,0 8 4 ENE - 10
18.01.2019 17:00:00 6,0 2,0 11 6 ENE - 10
18.01.2019 16:00:00 7,0 1,9 13 7 E 1015,3 20
18.01.2019 15:00:00 7,0 3,0 15 8 E - 10
18.01.2019 14:00:00 7,0 4,0 9 5 NE - 10
18.01.2019 13:00:00 6,0 3,2 9 5 ENE 1014,6 15
18.01.2019 12:00:00 7,0 5,0 13 7 ENE - 10
18.01.2019 11:00:00 7,0 4,0 13 7 E - 10
18.01.2019 10:00:00 6,0 4,2 4 2 SSE 1011,8 9
18.01.2019 09:00:00 6,0 4,0 4 2 ONO - 8
18.01.2019 08:00:00 6,0 4,0 5 3 OSO - 10
18.01.2019 07:00:00 5,8 4,3 9 5 NE 1008,8 25
18.01.2019 06:00:00 6,0 4,0 4 2 OSO - 10
18.01.2019 05:00:00 6,0 4,0 8 4 N - 10
18.01.2019 04:00:00 - - - - - - -
18.01.2019 03:00:00 - - - - - - -
18.01.2019 02:00:00 - - - - - - -
18.01.2019 01:00:00 - - - - - - -
18.01.2019 00:00:00 - - - - - - -
17.01.2019 23:00:00 - - - - - - -
17.01.2019 22:00:00 5,8 5,1 9 5 NNE 1010,9 2,5
17.01.2019 21:00:00 6,0 5,0 8 4 NE - 2,6
17.01.2019 20:00:00 6,0 5,0 11 6 N - 2,8
17.01.2019 19:00:00 6,0 5,3 13 7 NNE 1011,9 2,5
17.01.2019 18:00:00 6,0 5,0 9 5 NNE - 2,8
17.01.2019 17:00:00 6,0 6,0 5 3 N - 2,8
17.01.2019 16:00:00 7,4 6,4 5 3 NNO 1012,9 4,0
17.01.2019 15:00:00 7,0 5,0 9 5 NE - 7
17.01.2019 14:00:00 8,0 4,0 8 4 NNE - 8
17.01.2019 13:00:00 8,0 3,8 8 4 NNE 1014,4 12
17.01.2019 12:00:00 8,0 4,0 8 4 ENE - 10
17.01.2019 11:00:00 8,0 3,0 4 2 E - 10
17.01.2019 10:00:00 6,0 2,8 5 3 NNE 1015,7 15
17.01.2019 09:00:00 5,0 3,0 8 4 NNE - 10
17.01.2019 08:00:00 5,0 4,0 4 2 N - 10
17.01.2019 07:00:00 4,8 3,6 8 4 NE 1015,9 15
17.01.2019 06:00:00 4,0 4,0 8 4 N - 10
17.01.2019 05:00:00 4,0 4,0 4 2 NNE - 10

tt = Temperatura
td = dewpoint
ff = velocità del vento
dd = direzione del vento
ppp = reduced air pressure
vv = visibility

Stazioni seguenti

WeatherPro
AMSI
MeteoEarth